Notices

What's New in latest Release from April 7th, 2021:

- Updated Glossary, including Speed of Maximum Gust, and Total Hourly Precipitation

- Updated national and regional climate services offices contacts and prices information

- Addition of station inventory lists for 1981-2010, 1971-2000, and 1961-1990 Normals.

If you haven't already, please take our survey and provide feedback about our website: https://eccc.sondage-survey.ca/f/LanguageSelection.aspx?s=442ca660-fcf1-47c0-95a9-59707d6fd709

Hourly Data Report for November 03, 2019

EUREKA CLIMATE
NUNAVUT
Current Station Operator: ECCC - MSC

79°59'21.000" N
85°56'02.000" W
10.00 m
2401199
71613
NEK

Download Data

Hourly Data (November 2019)
Hourly Data Report for November 3, 2019
TIME
LST
Temp Definition
°C
Dew Point Definition
°C
Rel Hum Definition
%
Precip. Amount Definition
mm

Wind Dir Definition
10's deg

Wind Spd Definition
km/h
Visibility Definition
km
Stn Press Definition
kPa
Hmdx Definition


Wind Chill Definition


Weather Definition


00:00 -23.6 -26.3 78 0.0 36 8   101.22   -30 LegendNANA
01:00 -22.7 -25.5 78 0.0 31 8   101.23   -29 LegendNANA
02:00 -25.4 -27.9 79 0.0 2 7   101.23   -32 LegendNANA
03:00 -25.8 -28.5 78 0.0 6 4   101.25   -30 LegendNANA
04:00 -25.3 -27.7 80 0.0 4 4   101.26   -29 LegendNANA
05:00 -26.0 -28.4 80 0.0 7 2   101.26   -28 LegendNANA
06:00 -26.7 -29.2 79 0.0 3 6   101.27   -33 LegendNANA
07:00 -26.4 -28.8 80 0.0 5 6   101.26   -32 LegendNANA
08:00 -26.3 -28.7 80 0.0 7 3   101.27   -29 LegendNANA
09:00 -26.6 -28.9 81 0.0 8 4   101.28   -31 LegendNANA
10:00 -27.6 -30.1 79 0.0 3 7   101.31   -34 LegendNANA
11:00 -27.6 -30.2 79 0.0 3 7   101.31   -34 LegendNANA
12:00 -26.7 -29.2 79 0.0 2 6   101.31   -33 LegendNANA
13:00 -25.9 -28.4 80 0.0 1 5   101.32   -31 LegendNANA
14:00 -25.7 -28.0 81 0.0 7 3   101.33   -29 LegendNANA
15:00 -26.6 -29.0 80 0.0 3 8   101.35   -34 LegendNANA
16:00 -27.2 -29.8 79 0.0 2 11   101.37   -36 LegendNANA
17:00 -26.6 -29.1 79 0.0 2 11   101.38   -36 LegendNANA
18:00 -25.9 -28.4 79 0.0 2 7   101.38   -33 LegendNANA
19:00 -25.9 -28.4 79 0.0 4 4   101.38   -30 LegendNANA
20:00 -26.6 -29.1 79 0.0 4 6   101.38   -33 LegendNANA
21:00 -27.1 -29.8 78 0.0 6 5   101.42   -32 LegendNANA
22:00 -26.2 -28.7 80 0.0 4 5   101.41   -31 LegendNANA
23:00 -26.0 -28.6 79 0.0 3 4   101.43   -30 LegendNANA

Notes on Data Quality.

Legend

  • E = Estimated
  • M = Missing
  • NA = Not Available*
  • [empty] = Indicates an unobserved value
Date modified: